Find Starlink 31730

NORAD ID: 59555 Int'l Des: 2024-074 Owner: SPXS Country: US Constellation: starlink operational
LEOCIRCULAR

当前视图

正在加载3D地球...

About Starlink 31730

Starlink 31730 (NORAD 59555) is a starlink constellation satellite (v2 mini) launched Apr 18, 2024 by SPXS of US. It operates in LEO, CIRCULAR orbit with a mass of 730.00 kg.

关于 Starlink 31730

正在加载描述...

即将过境

Passes for default location (London). Set your location on the main map for personalized predictions.

高度历史

Loading altitude history...

两行轨道根数

1 59555U 24074X 26190.92027445 .00000205 00000-0 16989-4 0 9991
2 59555 43.0032 13.5897 0001836 274.2219 85.8423 15.27577920124700
Epoch: Jul 9, 2026 • Age: 19 hours

当前状态

高度 484.6 km
远地点 / 近地点 N/A
速度 7.63 km/s
星下点 30.80°N, 136.99°W
发射日期 Apr 18, 2024
运行时间 2.2 years
类型 internet

技术详情

分类 Payload
质量 730.00 kg
干质量 700.00 kg
总质量 730.00 kg
长度 0.30 m
直径 4.10 m
跨度 29.00 m
形状 Box + pan
制造商 SPXS
平台类型 Starlink V2M
阶段状态 In Orbit
所有者/国家 SPXS/US

Most Searched